Flag for U.S.A. Weather past 2 weeks in Menominee, Michigan, U.S.A.

Now
46 °F

Overcast.


Feels Like: 42 °F
Forecast: 37 / 49 °F
Wind: 8 mph from North

Location: Menominee Weather Reporting Station

Current Time: Oct 20, 2014 at 10:55:38 PM

Latest Report: Oct 20, 2014 at 10:35 PM


Visibility: 10 mi

Pressure: 30.03 "Hg

Humidity: 71%

Dew point: 37 °F

Location of MenomineeLocation

Historic Weather in Menominee — Graph

°F

Menominee temperature yesterday

Maximum temperature yesterday: 52 °F (at 1:55 PM)
Minimum temperature yesterday: 30 °F (at 12:15 AM)
Average temperature yesterday: 42 °F

Past Weeks' High & Low Weather Summary

 TemperatureHumidityPressure
High57 °F (Oct 13, 1:55 PM)94% (Oct 13, 2:15 AM)30.18 "Hg (Oct 13, 2:15 AM)
Low30 °F (Oct 19, 12:15 AM)43% (Oct 18, 3:55 PM)29.43 "Hg (Oct 17, 5:55 AM)
Average48 °F82%29.81 "Hg
* Reported Oct 12 10:35 PM — Oct 20 9:35 PM, Menominee, Weather by CustomWeather, © 2014

Note: Actual official high and low records may vary slightly from our data, if they occured in-between our weather recording intervals... More about our weather records

Advertising

Menominee weather history for previous 24 hours

 ConditionsComfort  
Time TempWeatherWind HumidityBarometerVisibility
9:35 PM
Oct 20
46 °FOvercast.10 mph71%30.01 "Hg10 mi
9:15 PM46 °FOvercast.8 mph71%30.01 "Hg10 mi
8:55 PM46 °FOvercast.9 mph71%30.00 "Hg10 mi
8:35 PM46 °FOvercast.10 mph76%30.00 "Hg10 mi
8:15 PM46 °FOvercast.7 mph76%30.00 "Hg10 mi
7:55 PM46 °FOvercast.6 mph76%29.99 "Hg10 mi
7:35 PM46 °FPassing clouds.5 mph76%29.98 "Hg10 mi
7:15 PM46 °FOvercast.3 mph76%29.97 "Hg10 mi
6:55 PM48 °FOvercast.5 mph71%29.97 "Hg10 mi
6:35 PM48 °FOvercast.9 mph76%29.96 "Hg10 mi
6:15 PM48 °FOvercast.5 mph76%29.95 "Hg10 mi
5:55 PM48 °FOvercast.6 mph71%29.94 "Hg10 mi
5:35 PM50 °FOvercast.6 mph71%29.93 "Hg10 mi
5:15 PM50 °FOvercast.6 mph67%29.92 "Hg10 mi
4:55 PM52 °FOvercast.9 mph67%29.91 "Hg10 mi
4:35 PM52 °FOvercast.10 mph67%29.91 "Hg10 mi
3:55 PM52 °FOvercast.7 mph72%29.89 "Hg10 mi
3:35 PM52 °FOvercast.7 mph72%29.89 "Hg10 mi
3:15 PM48 °FBroken clouds.6 mph82%29.89 "Hg10 mi
2:55 PM52 °FCloudy.13 mph67%29.88 "Hg10 mi
2:35 PM52 °FMostly cloudy.10 mph67%29.87 "Hg10 mi
2:15 PM52 °FCloudy.10 mph67%29.87 "Hg10 mi
1:55 PM52 °FMore clouds than sun.13 mph67%29.87 "Hg10 mi
1:35 PM52 °FMostly cloudy.12 mph67%29.87 "Hg10 mi
1:15 PM52 °FMostly cloudy.13 mph67%29.86 "Hg10 mi
12:55 PM50 °FMore clouds than sun.13 mph71%29.86 "Hg10 mi
12:35 PM50 °FOvercast.13 mph71%29.86 "Hg10 mi
12:15 PM50 °FOvercast.14 mph71%29.86 "Hg10 mi
11:55 AM50 °FOvercast.12 mph76%29.86 "Hg10 mi
11:35 AM50 °FOvercast.12 mph76%29.85 "Hg10 mi
11:15 AM50 °FOvercast.8 mph76%29.85 "Hg10 mi
10:55 AM48 °FOvercast.10 mph82%29.84 "Hg10 mi
10:35 AM48 °FOvercast.15 mph82%29.84 "Hg10 mi
10:15 AM48 °FOvercast.9 mph82%29.84 "Hg10 mi
9:55 AM48 °FOvercast.8 mph82%29.83 "Hg10 mi
9:35 AM48 °FOvercast.9 mph82%29.83 "Hg10 mi
9:15 AM48 °FOvercast.8 mph82%29.83 "Hg10 mi
8:55 AM46 °FOvercast.9 mph87%29.83 "Hg10 mi
8:35 AM46 °FOvercast.7 mph87%29.82 "Hg10 mi
8:15 AM46 °FOvercast.7 mph87%29.81 "Hg10 mi
7:55 AM46 °FOvercast.6 mph82%29.80 "Hg10 mi
7:35 AM46 °FOvercast.7 mph87%29.79 "Hg10 mi
6:55 AM45 °FOvercast.8 mph87%29.78 "Hg10 mi
6:35 AM46 °FOvercast.8 mph82%29.78 "Hg10 mi
5:55 AM46 °FOvercast.6 mph82%29.76 "Hg10 mi
5:35 AM46 °FOvercast.3 mph87%29.76 "Hg10 mi
5:15 AM45 °FOvercast.5 mph87%29.76 "Hg10 mi
4:55 AM45 °FPassing clouds.5 mph87%29.75 "Hg10 mi
4:35 AM45 °FClear.No wind87%29.74 "Hg10 mi
4:15 AM46 °FClear.No wind82%29.74 "Hg10 mi
3:55 AM46 °FPassing clouds.No wind87%29.73 "Hg10 mi
3:35 AM46 °FOvercast.No wind87%29.73 "Hg10 mi
3:15 AM48 °FOvercast.No wind82%29.73 "Hg10 mi
2:55 AM48 °FOvercast.No wind82%29.73 "Hg10 mi
2:35 AM48 °FOvercast.3 mph82%29.73 "Hg10 mi
2:15 AM48 °FOvercast.3 mph82%29.73 "Hg10 mi
1:55 AM48 °FOvercast.5 mph82%29.73 "Hg10 mi
1:35 AM50 °FOvercast.6 mph76%29.73 "Hg10 mi
1:15 AM50 °FOvercast.6 mph76%29.73 "Hg10 mi
12:55 AM48 °FOvercast.6 mph82%29.73 "Hg10 mi
10:15 PM
Oct 19
50 °FPassing clouds.5 mph76%29.76 "Hg10 mi
Weather by CustomWeather, © 2014

See weather overviewHow to use our weather pages